Other Public Products
Issued by NWS Charleston, SC

Current Version | Previous Version | Graphics & Text | Print | Product List | Glossary On
Versions: 1 2 3 4 5 6 7 8 9 10 11 12 13 14 15 16 17 18 19 20 21 22 23 24 25 26 27 28 29 30 31 32 33 34 35 36 37 38 39 40 41 42 43 44 45 46 47 48 49 50
000
FPUS82 KCHS 270727
OPUCHS

TEST...KCHS/KSAV Gateway Observations...TEST
National Weather Service Charleston SC
300 AM EDT THU APR 27 2017

NOTE: "fair" indicates few or no clouds below 12,000 feet with no
significant weather and/or obstructions to visibility.

SCZ050-WAZ558-NCZ071-TXZ119-213-PAZ071-DCZ001-FLZ074-172-MI076-
NYZ176-178-MAZ016-IL014-TNZ027-NJZ106-GAZ044-MD014-270800-

...Gateway Observations for Charleston International...

CITY           SKY/WX    TMP DP  RH WIND       PRES   REMARKS
Chas Airport   CLEAR     64  61  90 S6        29.86F
Seattle        CLOUDY    46  39  76 SW14      29.99S
Charlotte      MOCLDY    65  58  78 S10       29.85S
Dallas DFW     CLEAR     52  47  83 S5        29.77F
Dallas Love    PTCLDY    54  46  74 S5        29.79F
Philladelphia  CLOUDY    61  57  87 CALM      29.85S
Wash National  PTCLDY    60  58  92 CALM      29.83F
Baltimore      MOCLDY    54  54 100 CALM      29.83F FOG
Miami          MOCLDY    78  72  81 SE7       29.90F
Detroit        CLOUDY    65  51  60 SE7       29.54F
Newark         DRIZZLE   59  59 100 CALM      29.84F FOG
Laguardia      DRZL/FOG  58  56  93 CALM      29.84S VSB 1/2
J F K          DRZL/FOG  58  58 100 SW3       29.86S VSB 3/4
Boston Logan   FOG       51  51 100 N3        29.86F VSB 1/4
Ft. Lauderdale CLOUDY    78  74  87 SE10      29.89S
Chicago O`Hare LGT RAIN  60  57  89 S14       29.37F
Chicago Midway LGT RAIN  61  59  93 S9        29.38F
Houston Bush   PTCLDY    61  51  70 NE9       29.80S
Houston Hobby  PTCLDY    63  51  65 N16       29.79R
Nashville      HVY RAIN  64  62  93 S6        29.66R FOG
Atlanta        CLOUDY    66  56  70 S9        29.80F

$$

GAZ044-118-TXZ119-213-NCZ071-DCZ001-MDZ014-506-PAZ021-071-NJZ106-
NYZ176-178-MAZ106-OHZ011-021-055-MIZ076-KYZ091-ILZ014-INZ047-
MNZ060-ONZ431-270800-

...Gateway Observations for Savannah International...

CITY           SKY/WX    TMP DP  RH WIND       PRES   REMARKS
Savannah Arpt  CLEAR     68  62  81 S6        29.88F
Atlanta        CLOUDY    66  56  70 S9        29.80F
Charlotte      MOCLDY    65  58  78 S10       29.85S
Dallas DFW     CLEAR     52  47  83 S5        29.77F
Houston Bush   PTCLDY    61  51  70 NE9       29.80S
Wash National  PTCLDY    60  58  92 CALM      29.83F
Wash Dulles    PTCLDY    57  55  93 CALM      29.81F
Baltimore      MOCLDY    54  54 100 CALM      29.83F FOG
Philadelphia   CLOUDY    61  57  87 CALM      29.85S
Newark         DRIZZLE   59  59 100 CALM      29.84F FOG
Laguardia      DRZL/FOG  58  56  93 CALM      29.84S VSB 1/2
J F K          DRZL/FOG  58  58 100 SW3       29.86S VSB 3/4
Boston         FOG       51  51 100 N3        29.86F VSB 1/4
Pittsburg      CLEAR     63  57  81 SE3       29.68F
Akron          CLOUDY    65  51  60 SE10      29.65S
Cleveland      MOCLDY    68  50  52 S10       29.61S
Cincinnati     CLOUDY    67  55  65 S8        29.58F
Columbus       CLEAR     64  53  65 S9        29.60F
Detroit        CLOUDY    65  51  60 SE7       29.54F
Chicago O`Hare LGT RAIN  60  57  89 S14       29.37F
Minneapolis    CLOUDY    36  30  79 N8        29.56S WCI  30
Indianapolis   TSTM      61  58  90 SW16      29.54R
Toronto Canada CLEAR     50  48  93 W2        29.66F

$$




USA.gov is the U.S. government's official web portal to all federal, state and local government web resources and services.